QPF
0.05 0.07 0.09 0.12 0.13 0.14 0.15 0.18 0.17 0.15 0.12 0.12 0.12 0.09 0.09 0.09 0.07 0.08 0.09 0.10 0.11 0.13 0.17 0.22 0.25 0.27 0.24 0.21 0.18 0.17 0.18 0.19 0.24 0.22 0.24 0.19 0.12 0.09 0.09 0.09 0.10 0.08 0.06
0.05 0.07 0.10 0.13 0.15 0.16 0.18 0.16 0.09 0.11 0.10 0.09 0.11 0.10 0.10 0.14 0.14 0.13 0.14 0.12 0.11 0.14 0.18 0.21 0.20 0.20 0.19 0.17 0.14 0.14 0.18 0.22 0.23 0.22 0.22 0.20 0.16 0.11 0.10 0.11 0.11 0.08 0.08
0.04 0.05 0.09 0.14 0.14 0.15 0.16 0.14 0.08 0.08 0.09 0.09 0.11 0.12 0.10 0.11 0.15 0.16 0.13 0.10 0.12 0.17 0.18 0.20 0.20 0.16 0.16 0.16 0.15 0.16 0.22 0.27 0.22 0.23 0.25 0.17 0.13 0.12 0.10 0.10 0.11 0.08 0.08
0.06 0.06 0.09 0.13 0.12 0.13 0.12 0.12 0.09 0.07 0.07 0.08 0.09 0.13 0.12 0.09 0.12 0.13 0.12 0.13 0.16 0.21 0.22 0.23 0.19 0.16 0.18 0.23 0.22 0.24 0.27 0.28 0.24 0.27 0.22 0.12 0.10 0.11 0.12 0.13 0.11 0.07 0.07
0.06 0.07 0.10 0.10 0.10 0.11 0.11 0.12 0.10 0.08 0.08 0.08 0.09 0.12 0.12 0.11 0.13 0.19 0.22 0.21 0.21 0.24 0.27 0.25 0.19 0.21 0.26 0.28 0.27 0.27 0.27 0.29 0.31 0.25 0.15 0.11 0.12 0.15 0.16 0.15 0.11 0.08 0.08
0.05 0.06 0.06 0.07 0.08 0.10 0.10 0.10 0.13 0.11 0.11 0.11 0.11 0.11 0.11 0.10 0.13 0.20 0.23 0.21 0.22 0.29 0.29 0.23 0.26 0.29 0.25 0.20 0.20 0.23 0.30 0.29 0.23 0.15 0.13 0.13 0.15 0.16 0.16 0.12 0.09 0.10 0.09
0.03 0.05 0.06 0.05 0.07 0.09 0.12 0.14 0.17 0.17 0.14 0.13 0.11 0.07 0.09 0.12 0.17 0.21 0.21 0.21 0.23 0.26 0.32 0.35 0.37 0.29 0.23 0.20 0.22 0.29 0.34 0.25 0.17 0.13 0.15 0.14 0.12 0.11 0.12 0.10 0.08 0.10 0.10
0.02 0.03 0.04 0.05 0.06 0.08 0.10 0.12 0.15 0.17 0.13 0.09 0.08 0.07 0.08 0.13 0.19 0.16 0.17 0.24 0.28 0.32 0.32 0.34 0.39 0.36 0.32 0.32 0.33 0.35 0.35 0.27 0.21 0.18 0.14 0.09 0.07 0.08 0.12 0.11 0.08 0.09 0.09
0.03 0.03 0.03 0.05 0.09 0.10 0.10 0.12 0.14 0.14 0.10 0.08 0.07 0.08 0.09 0.14 0.19 0.17 0.18 0.22 0.26 0.39 0.35 0.30 0.33 0.36 0.44 0.42 0.37 0.35 0.34 0.32 0.23 0.13 0.08 0.07 0.07 0.09 0.11 0.11 0.08 0.08 0.09
0.02 0.02 0.02 0.04 0.06 0.08 0.10 0.14 0.13 0.12 0.11 0.09 0.09 0.09 0.12 0.14 0.18 0.21 0.24 0.17 0.18 0.33 0.35 0.30 0.27 0.36 0.43 0.28 0.22 0.21 0.20 0.20 0.22 0.15 0.10 0.08 0.08 0.08 0.08 0.09 0.08 0.08 0.08
0.02 0.03 0.03 0.04 0.05 0.05 0.07 0.11 0.14 0.13 0.12 0.12 0.10 0.10 0.13 0.16 0.15 0.16 0.23 0.31 0.31 0.35 0.32 0.23 0.19 0.25 0.29 0.21 0.14 0.10 0.10 0.10 0.11 0.12 0.11 0.10 0.09 0.06 0.06 0.07 0.08 0.08 0.07
0.05 0.05 0.04 0.02 0.03 0.04 0.04 0.08 0.11 0.11 0.11 0.12 0.12 0.14 0.15 0.15 0.15 0.15 0.17 0.24 0.28 0.29 0.25 0.17 0.15 0.13 0.11 0.12 0.10 0.07 0.05 0.04 0.04 0.05 0.06 0.07 0.09 0.10 0.08 0.06 0.06 0.07 0.06
0.06 0.06 0.05 0.03 0.03 0.05 0.07 0.07 0.09 0.10 0.10 0.10 0.12 0.17 0.16 0.15 0.14 0.14 0.14 0.16 0.19 0.24 0.21 0.15 0.13 0.08 0.06 0.06 0.07 0.06 0.05 0.02 0.02 0.03 0.02 0.02 0.03 0.07 0.10 0.07 0.07 0.07 0.07
0.06 0.08 0.07 0.06 0.05 0.05 0.06 0.09 0.11 0.12 0.11 0.11 0.13 0.13 0.14 0.16 0.18 0.16 0.14 0.14 0.17 0.19 0.15 0.11 0.10 0.07 0.05 0.04 0.05 0.05 0.03 0.02 0.02 0.04 0.03 0.02 0.03 0.04 0.06 0.08 0.09 0.08 0.08
0.05 0.07 0.07 0.06 0.04 0.03 0.05 0.10 0.13 0.13 0.11 0.11 0.10 0.10 0.11 0.13 0.14 0.15 0.15 0.13 0.13 0.12 0.10 0.09 0.06 0.05 0.04 0.04 0.05 0.03 0.02 0.02 0.02 0.02 0.02 0.02 0.05 0.06 0.07 0.07 0.08 0.09 0.10
0.03 0.04 0.04 0.03 0.03 0.03 0.04 0.06 0.08 0.09 0.09 0.08 0.09 0.11 0.12 0.10 0.08 0.08 0.09 0.10 0.08 0.06 0.05 0.06 0.05 0.06 0.05 0.04 0.04 0.03 0.03 0.03 0.02 0.02 0.02 0.04 0.05 0.05 0.06 0.06 0.07 0.08 0.09
0.02 0.02 0.02 0.01 0.01 0.01 0.02 0.03 0.03 0.04 0.06 0.07 0.08 0.07 0.07 0.06 0.05 0.05 0.05 0.06 0.04 0.03 0.03 0.03 0.04 0.05 0.05 0.04 0.03 0.02 0.02 0.02 0.03 0.03 0.03 0.04 0.04 0.03 0.04 0.05 0.05 0.05 0.07
0.01 0.01 0.01 0.01 0.01 0.01 0.02 0.02 0.02 0.03 0.04 0.04 0.05 0.04 0.03 0.04 0.03 0.03 0.03 0.04 0.03 0.03 0.04 0.04 0.03 0.04 0.04 0.03 0.03 0.02 0.02 0.03 0.02 0.02 0.02 0.03 0.03 0.02 0.03 0.03 0.03 0.04 0.06
0.01 0.01 0.01 0.01 0.02 0.01 0.01 0.01 0.02 0.02 0.03 0.04 0.04 0.03 0.03 0.02 0.02 0.02 0.02 0.03 0.02 0.02 0.03 0.03 0.02 0.03 0.04 0.04 0.02 0.02 0.02 0.02 0.03 0.02 0.02 0.02 0.02 0.02 0.03 0.02 0.02 0.02 0.03
0.01 0.02 0.01 0.02 0.02 0.02 0.02 0.01 0.01 0.01 0.02 0.03 0.03 0.04 0.03 0.02 0.02 0.02 0.03 0.02 0.02 0.03 0.03 0.03 0.03 0.04 0.04 0.04 0.03 0.02 0.02 0.03 0.03 0.03 0.02 0.02 0.01 0.01 0.02 0.02 0.03 0.03 0.02
0.01 0.02 0.01 0.02 0.02 0.03 0.02 0.03 0.02 0.02 0.02 0.03 0.03 0.03 0.03 0.02 0.02 0.03 0.02 0.02 0.03 0.03 0.04 0.04 0.03 0.04 0.04 0.04 0.04 0.03 0.03 0.03 0.03 0.02 0.01 0.01 0.01 0.02 0.02 0.02 0.03 0.02 0.02
0.01 0.02 0.01 0.01 0.02 0.02 0.02 0.02 0.03 0.02 0.02 0.03 0.05 0.05 0.03 0.02 0.02 0.02 0.03 0.02 0.02 0.02 0.03 0.03 0.03 0.03 0.03 0.04 0.06 0.06 0.04 0.03 0.03 0.02 0.02 0.02 0.02 0.03 0.03 0.03 0.02 0.02 0.03
0.01 0.02 0.01 0.01 0.01 0.02 0.02 0.02 0.02 0.02 0.02 0.03 0.05 0.05 0.04 0.02 0.02 0.03 0.03 0.02 0.02 0.02 0.02 0.03 0.03 0.03 0.04 0.04 0.05 0.06 0.05 0.05 0.03 0.03 0.03 0.03 0.04 0.04 0.04 0.04 0.03 0.02 0.02
0.01 0.01 0.02 0.01 0.01 0.02 0.02 0.03 0.02 0.02 0.02 0.03 0.03 0.02 0.03 0.02 0.02 0.02 0.03 0.03 0.03 0.02 0.02 0.03 0.03 0.04 0.05 0.04 0.04 0.04 0.04 0.05 0.04 0.04 0.03 0.03 0.03 0.03 0.03 0.03 0.02 0.02 0.03
0.01 0.01 0.01 0.01 0.01 0.02 0.02 0.02 0.02 0.02 0.02 0.02 0.02 0.02 0.03 0.02 0.02 0.02 0.02 0.03 0.03 0.02 0.03 0.03 0.04 0.05 0.05 0.05 0.05 0.05 0.05 0.05 0.05 0.04 0.03 0.02 0.03 0.03 0.02 0.02 0.02 0.02 0.03
0.02 0.01 0.01 0.02 0.01 0.01 0.01 0.02 0.02 0.02 0.02 0.02 0.03 0.03 0.03 0.03 0.03 0.03 0.03 0.05 0.04 0.04 0.04 0.04 0.04 0.05 0.04 0.04 0.05 0.05 0.05 0.04 0.04 0.03 0.02 0.02 0.03 0.03 0.03 0.03 0.02 0.02 0.02
MSLP
1007.04 1005.48 1003.69 1001.72 999.68 997.71 995.97 994.66 993.93 993.88 994.54 995.83 997.57 999.55 1001.55 1003.35 1004.84 1005.96 1006.73 1007.27 1007.67 1008.06 1008.51 1009.03 1009.61 1010.19 1010.71 1011.13 1011.45 1011.69 1011.89 1012.13 1012.43 1012.82 1013.28 1013.78 1014.27 1014.69 1015.03 1015.26 1015.40 1015.49 1015.56
1007.17 1005.59 1003.79 1001.83 999.82 997.88 996.19 994.91 994.19 994.12 994.74 995.96 997.64 999.56 1001.51 1003.29 1004.78 1005.91 1006.71 1007.27 1007.69 1008.09 1008.54 1009.06 1009.64 1010.21 1010.73 1011.16 1011.48 1011.73 1011.94 1012.17 1012.46 1012.84 1013.30 1013.80 1014.28 1014.71 1015.05 1015.30 1015.46 1015.57 1015.66
1007.25 1005.71 1003.97 1002.11 1000.20 998.38 996.79 995.58 994.89 994.80 995.35 996.48 998.03 999.83 1001.66 1003.36 1004.78 1005.88 1006.67 1007.23 1007.66 1008.08 1008.54 1009.06 1009.64 1010.23 1010.76 1011.19 1011.53 1011.78 1011.99 1012.21 1012.49 1012.86 1013.29 1013.77 1014.24 1014.66 1015.01 1015.26 1015.45 1015.58 1015.71
1007.31 1005.86 1004.25 1002.54 1000.80 999.14 997.69 996.57 995.92 995.81 996.28 997.27 998.66 1000.29 1001.96 1003.52 1004.84 1005.88 1006.63 1007.19 1007.63 1008.06 1008.54 1009.08 1009.67 1010.27 1010.81 1011.26 1011.60 1011.85 1012.06 1012.27 1012.53 1012.87 1013.28 1013.74 1014.19 1014.61 1014.95 1015.22 1015.43 1015.60 1015.76
1007.41 1006.09 1004.65 1003.13 1001.59 1000.12 998.82 997.82 997.21 997.07 997.44 998.27 999.47 1000.89 1002.38 1003.77 1004.97 1005.93 1006.65 1007.19 1007.65 1008.10 1008.59 1009.16 1009.76 1010.37 1010.92 1011.37 1011.71 1011.96 1012.15 1012.35 1012.59 1012.91 1013.30 1013.74 1014.19 1014.60 1014.95 1015.23 1015.46 1015.66 1015.85
1007.62 1006.47 1005.22 1003.91 1002.58 1001.31 1000.18 999.29 998.72 998.54 998.80 999.47 1000.46 1001.66 1002.94 1004.15 1005.22 1006.09 1006.76 1007.29 1007.76 1008.23 1008.75 1009.33 1009.94 1010.55 1011.09 1011.53 1011.85 1012.08 1012.26 1012.44 1012.67 1012.98 1013.37 1013.81 1014.26 1014.68 1015.04 1015.34 1015.58 1015.79 1016.00
1007.98 1007.01 1005.97 1004.88 1003.79 1002.73 1001.77 1000.98 1000.45 1000.23 1000.38 1000.87 1001.65 1002.62 1003.68 1004.71 1005.63 1006.40 1007.02 1007.53 1008.00 1008.49 1009.02 1009.60 1010.21 1010.80 1011.31 1011.72 1012.01 1012.21 1012.37 1012.54 1012.77 1013.08 1013.48 1013.94 1014.42 1014.86 1015.24 1015.55 1015.80 1016.00 1016.21
1008.50 1007.72 1006.90 1006.05 1005.19 1004.34 1003.56 1002.89 1002.40 1002.14 1002.18 1002.49 1003.06 1003.80 1004.63 1005.46 1006.23 1006.89 1007.44 1007.93 1008.39 1008.87 1009.40 1009.98 1010.56 1011.11 1011.58 1011.93 1012.18 1012.34 1012.47 1012.63 1012.86 1013.20 1013.64 1014.14 1014.66 1015.14 1015.55 1015.86 1016.10 1016.28 1016.45
1009.13 1008.54 1007.94 1007.33 1006.72 1006.09 1005.49 1004.94 1004.51 1004.23 1004.16 1004.32 1004.68 1005.19 1005.80 1006.43 1007.03 1007.57 1008.05 1008.48 1008.92 1009.39 1009.90 1010.44 1010.98 1011.48 1011.88 1012.17 1012.36 1012.47 1012.57 1012.72 1012.96 1013.33 1013.81 1014.36 1014.94 1015.46 1015.90 1016.23 1016.44 1016.59 1016.70
1009.77 1009.37 1008.99 1008.63 1008.25 1007.85 1007.44 1007.03 1006.66 1006.38 1006.24 1006.26 1006.43 1006.74 1007.14 1007.58 1008.01 1008.42 1008.80 1009.18 1009.57 1010.01 1010.49 1010.99 1011.49 1011.91 1012.25 1012.46 1012.58 1012.63 1012.69 1012.82 1013.06 1013.46 1013.98 1014.59 1015.21 1015.78 1016.25 1016.58 1016.79 1016.89 1016.94
1010.34 1010.12 1009.94 1009.80 1009.65 1009.47 1009.25 1008.98 1008.70 1008.44 1008.26 1008.17 1008.20 1008.33 1008.55 1008.81 1009.09 1009.38 1009.67 1009.98 1010.34 1010.74 1011.18 1011.64 1012.07 1012.44 1012.69 1012.83 1012.87 1012.86 1012.87 1012.96 1013.19 1013.59 1014.14 1014.78 1015.44 1016.05 1016.54 1016.89 1017.08 1017.16 1017.17
1010.77 1010.69 1010.69 1010.74 1010.79 1010.81 1010.76 1010.63 1010.45 1010.24 1010.05 1009.90 1009.83 1009.84 1009.92 1010.04 1010.20 1010.39 1010.61 1010.87 1011.18 1011.55 1011.96 1012.37 1012.75 1013.05 1013.24 1013.31 1013.27 1013.20 1013.14 1013.18 1013.38 1013.75 1014.29 1014.93 1015.60 1016.23 1016.74 1017.10 1017.30 1017.37 1017.37
1011.04 1011.06 1011.19 1011.37 1011.58 1011.75 1011.85 1011.86 1011.78 1011.64 1011.47 1011.31 1011.20 1011.14 1011.13 1011.17 1011.26 1011.39 1011.56 1011.79 1012.08 1012.42 1012.80 1013.18 1013.52 1013.77 1013.90 1013.90 1013.80 1013.66 1013.53 1013.50 1013.63 1013.95 1014.43 1015.03 1015.68 1016.31 1016.82 1017.20 1017.42 1017.52 1017.53
1011.18 1011.26 1011.44 1011.71 1012.01 1012.28 1012.49 1012.60 1012.62 1012.55 1012.43 1012.31 1012.20 1012.13 1012.11 1012.13 1012.19 1012.31 1012.47 1012.69 1012.97 1013.31 1013.67 1014.03 1014.34 1014.55 1014.63 1014.59 1014.43 1014.22 1014.03 1013.92 1013.96 1014.19 1014.58 1015.11 1015.70 1016.29 1016.80 1017.19 1017.44 1017.58 1017.65
1011.26 1011.33 1011.53 1011.81 1012.14 1012.46 1012.72 1012.91 1012.99 1013.00 1012.96 1012.89 1012.83 1012.80 1012.81 1012.86 1012.95 1013.09 1013.28 1013.51 1013.81 1014.14 1014.50 1014.84 1015.13 1015.31 1015.37 1015.29 1015.10 1014.85 1014.59 1014.41 1014.35 1014.47 1014.76 1015.18 1015.69 1016.21 1016.69 1017.09 1017.37 1017.56 1017.69
1011.34 1011.38 1011.54 1011.79 1012.09 1012.41 1012.68 1012.90 1013.03 1013.10 1013.12 1013.13 1013.14 1013.17 1013.25 1013.36 1013.51 1013.70 1013.93 1014.20 1014.51 1014.84 1015.19 1015.52 1015.79 1015.96 1016.01 1015.92 1015.72 1015.44 1015.16 1014.91 1014.78 1014.80 1014.97 1015.28 1015.68 1016.13 1016.56 1016.93 1017.24 1017.47 1017.65
1011.49 1011.48 1011.57 1011.76 1012.01 1012.29 1012.54 1012.76 1012.92 1013.02 1013.10 1013.16 1013.24 1013.35 1013.49 1013.68 1013.89 1014.14 1014.41 1014.70 1015.02 1015.35 1015.68 1015.99 1016.24 1016.40 1016.45 1016.38 1016.19 1015.94 1015.65 1015.39 1015.21 1015.16 1015.23 1015.44 1015.73 1016.09 1016.45 1016.79 1017.09 1017.34 1017.54
1011.71 1011.66 1011.70 1011.83 1012.02 1012.24 1012.47 1012.66 1012.82 1012.95 1013.05 1013.16 1013.28 1013.44 1013.63 1013.86 1014.12 1014.41 1014.70 1015.01 1015.32 1015.62 1015.92 1016.19 1016.42 1016.57 1016.63 1016.59 1016.46 1016.26 1016.02 1015.79 1015.62 1015.53 1015.56 1015.68 1015.89 1016.16 1016.46 1016.74 1017.00 1017.23 1017.42
1011.97 1011.91 1011.92 1012.01 1012.17 1012.35 1012.55 1012.73 1012.89 1013.01 1013.12 1013.23 1013.37 1013.54 1013.75 1013.99 1014.26 1014.55 1014.85 1015.13 1015.41 1015.67 1015.92 1016.14 1016.33 1016.47 1016.55 1016.56 1016.51 1016.40 1016.25 1016.11 1015.99 1015.93 1015.95 1016.04 1016.20 1016.40 1016.63 1016.85 1017.05 1017.22 1017.35
1012.21 1012.18 1012.21 1012.30 1012.45 1012.63 1012.83 1013.01 1013.16 1013.28 1013.37 1013.46 1013.58 1013.72 1013.90 1014.12 1014.37 1014.63 1014.89 1015.13 1015.36 1015.56 1015.74 1015.90 1016.05 1016.17 1016.27 1016.33 1016.36 1016.37 1016.35 1016.33 1016.32 1016.35 1016.41 1016.52 1016.67 1016.83 1017.01 1017.16 1017.29 1017.37 1017.41
1012.37 1012.40 1012.48 1012.61 1012.80 1013.02 1013.25 1013.45 1013.61 1013.73 1013.81 1013.86 1013.92 1014.01 1014.14 1014.30 1014.49 1014.70 1014.90 1015.09 1015.25 1015.38 1015.49 1015.58 1015.67 1015.77 1015.88 1015.99 1016.11 1016.23 1016.35 1016.48 1016.62 1016.77 1016.93 1017.10 1017.27 1017.44 1017.59 1017.69 1017.75 1017.74 1017.68
1012.41 1012.52 1012.67 1012.88 1013.15 1013.44 1013.72 1013.98 1014.17 1014.29 1014.36 1014.38 1014.38 1014.40 1014.45 1014.55 1014.67 1014.82 1014.96 1015.08 1015.18 1015.24 1015.28 1015.30 1015.34 1015.40 1015.50 1015.65 1015.83 1016.06 1016.32 1016.59 1016.88 1017.17 1017.45 1017.72 1017.96 1018.17 1018.32 1018.40 1018.41 1018.33 1018.17
1012.33 1012.52 1012.75 1013.05 1013.40 1013.78 1014.15 1014.47 1014.71 1014.87 1014.93 1014.93 1014.89 1014.85 1014.83 1014.86 1014.92 1015.01 1015.11 1015.19 1015.23 1015.24 1015.22 1015.18 1015.16 1015.17 1015.25 1015.39 1015.62 1015.92 1016.27 1016.67 1017.10 1017.52 1017.93 1018.31 1018.65 1018.92 1019.10 1019.20 1019.19 1019.07 1018.85
1012.19 1012.43 1012.73 1013.09 1013.52 1013.98 1014.43 1014.83 1015.14 1015.34 1015.43 1015.42 1015.36 1015.29 1015.23 1015.22 1015.25 1015.31 1015.38 1015.43 1015.45 1015.42 1015.36 1015.27 1015.19 1015.14 1015.17 1015.30 1015.52 1015.84 1016.25 1016.73 1017.25 1017.78 1018.30 1018.79 1019.22 1019.57 1019.82 1019.96 1019.98 1019.86 1019.63
1012.07 1012.33 1012.65 1013.05 1013.53 1014.04 1014.56 1015.03 1015.41 1015.66 1015.79 1015.81 1015.76 1015.69 1015.62 1015.60 1015.62 1015.67 1015.74 1015.80 1015.81 1015.78 1015.68 1015.56 1015.42 1015.32 1015.29 1015.35 1015.54 1015.84 1016.25 1016.75 1017.31 1017.91 1018.51 1019.08 1019.59 1020.02 1020.36 1020.57 1020.64 1020.57 1020.38
1012.05 1012.29 1012.59 1012.98 1013.46 1014.00 1014.56 1015.08 1015.51 1015.82 1016.00 1016.07 1016.05 1016.01 1015.97 1015.96 1016.00 1016.08 1016.17 1016.25 1016.28 1016.24 1016.14 1015.99 1015.81 1015.65 1015.55 1015.54 1015.65 1015.90 1016.26 1016.74 1017.29 1017.90 1018.53 1019.15 1019.72 1020.22 1020.63 1020.92 1021.08 1021.10 1020.98
Thickness
5809 5810 5803 5803 5802 5803 5803 5803 5803 5803 5803 5803 5802 5801 5801 5801 5801 5801 5800 5799 5798 5797 5796 5794 5793 5791 5790 5788 5786 5784 5782 5781 5779 5777 5775 5773 5772 5771 5769 5768 5768 5767 5764
5811 5810 5803 5802 5802 5802 5803 5803 5804 5804 5803 5803 5802 5801 5801 5800 5800 5800 5800 5799 5798 5798 5797 5795 5793 5791 5788 5787 5785 5783 5782 5780 5778 5776 5774 5772 5771 5770 5769 5768 5767 5767 5763
5811 5809 5805 5802 5802 5802 5803 5803 5804 5804 5803 5802 5801 5800 5800 5800 5799 5799 5799 5799 5798 5798 5796 5794 5792 5790 5788 5786 5784 5783 5781 5779 5777 5776 5774 5773 5771 5769 5767 5766 5765 5764 5763
5811 5810 5806 5802 5801 5801 5802 5803 5803 5803 5802 5801 5801 5800 5800 5800 5799 5799 5799 5799 5798 5797 5795 5792 5791 5789 5787 5785 5783 5782 5781 5779 5777 5776 5776 5774 5772 5768 5766 5765 5764 5763 5762
5810 5808 5804 5801 5800 5801 5801 5801 5802 5802 5802 5801 5800 5799 5799 5799 5799 5798 5799 5798 5797 5796 5793 5791 5789 5787 5786 5785 5783 5781 5779 5778 5777 5777 5776 5774 5772 5768 5766 5764 5763 5762 5761
5810 5809 5804 5800 5800 5800 5800 5800 5801 5801 5801 5800 5799 5799 5798 5798 5798 5797 5797 5796 5795 5794 5791 5790 5788 5786 5785 5784 5782 5781 5779 5778 5778 5778 5776 5774 5771 5767 5765 5764 5762 5761 5760
5810 5809 5805 5800 5799 5800 5800 5800 5801 5801 5800 5799 5798 5798 5797 5797 5797 5797 5796 5793 5792 5791 5790 5789 5787 5784 5783 5783 5782 5780 5778 5778 5780 5779 5776 5774 5770 5767 5765 5763 5762 5760 5759
5810 5809 5806 5800 5799 5799 5799 5799 5800 5799 5799 5798 5797 5797 5796 5796 5797 5797 5795 5793 5791 5790 5788 5787 5785 5783 5782 5781 5780 5778 5777 5777 5779 5778 5776 5774 5769 5766 5764 5763 5761 5760 5758
5810 5809 5808 5806 5803 5800 5800 5799 5798 5798 5797 5797 5796 5796 5796 5795 5795 5795 5794 5792 5790 5789 5787 5785 5783 5782 5780 5779 5778 5777 5776 5777 5779 5778 5776 5773 5768 5766 5764 5762 5761 5759 5758
5810 5810 5809 5808 5806 5805 5803 5799 5798 5797 5796 5796 5795 5795 5795 5795 5793 5793 5792 5791 5790 5788 5785 5783 5782 5781 5779 5779 5778 5776 5775 5775 5778 5777 5776 5772 5768 5766 5763 5761 5760 5759 5758
5807 5808 5809 5808 5807 5806 5805 5801 5800 5798 5796 5796 5796 5795 5795 5796 5795 5793 5790 5789 5788 5786 5784 5782 5781 5779 5779 5778 5777 5775 5775 5777 5778 5777 5775 5770 5767 5765 5763 5761 5759 5758 5756
5803 5806 5808 5807 5806 5806 5805 5803 5802 5801 5798 5796 5795 5795 5794 5793 5792 5792 5788 5787 5786 5784 5782 5781 5780 5779 5779 5779 5777 5776 5778 5778 5778 5777 5773 5769 5766 5764 5762 5760 5759 5757 5756
5805 5805 5806 5805 5804 5805 5804 5803 5801 5800 5797 5796 5795 5794 5793 5793 5792 5792 5790 5788 5786 5784 5784 5781 5781 5781 5781 5779 5778 5778 5779 5779 5779 5777 5772 5767 5765 5763 5761 5760 5758 5757 5756
5804 5804 5805 5805 5803 5801 5802 5802 5801 5799 5797 5796 5793 5793 5793 5792 5790 5789 5788 5787 5786 5784 5782 5781 5780 5780 5779 5778 5778 5778 5778 5779 5778 5775 5769 5766 5764 5762 5760 5759 5757 5756 5755
5803 5803 5803 5802 5800 5799 5798 5799 5799 5798 5798 5796 5793 5791 5791 5791 5789 5788 5785 5784 5784 5783 5782 5780 5779 5778 5778 5778 5777 5777 5777 5777 5775 5774 5769 5765 5763 5761 5759 5758 5756 5755 5753
5803 5803 5803 5801 5800 5797 5797 5796 5796 5797 5794 5795 5792 5790 5788 5788 5786 5785 5784 5781 5781 5781 5780 5779 5778 5777 5777 5776 5775 5776 5775 5775 5772 5771 5770 5766 5762 5760 5758 5757 5755 5754 5753
5803 5803 5802 5801 5800 5797 5796 5796 5796 5796 5795 5793 5790 5788 5787 5787 5785 5784 5783 5781 5780 5779 5778 5777 5777 5777 5776 5775 5774 5774 5774 5772 5771 5770 5769 5768 5765 5761 5759 5757 5755 5753 5752
5804 5801 5801 5803 5800 5796 5794 5794 5795 5794 5792 5791 5790 5788 5786 5785 5784 5783 5783 5782 5780 5780 5779 5777 5777 5775 5774 5774 5773 5773 5772 5771 5770 5769 5769 5767 5766 5765 5760 5757 5755 5753 5751
5804 5801 5799 5799 5798 5796 5794 5793 5792 5791 5790 5789 5788 5786 5784 5784 5783 5783 5782 5780 5780 5780 5779 5778 5776 5774 5772 5771 5771 5771 5772 5771 5770 5770 5768 5768 5766 5764 5762 5758 5755 5753 5751
5805 5802 5799 5798 5796 5795 5794 5792 5791 5790 5789 5788 5787 5784 5783 5783 5782 5782 5781 5779 5780 5779 5777 5775 5772 5771 5772 5772 5773 5771 5772 5771 5771 5770 5769 5768 5766 5765 5763 5761 5758 5754 5751
5805 5801 5799 5797 5795 5793 5792 5790 5788 5787 5788 5787 5786 5783 5782 5781 5780 5780 5781 5778 5778 5776 5775 5775 5773 5771 5771 5772 5770 5768 5770 5772 5771 5769 5769 5768 5767 5764 5762 5760 5759 5756 5753
5803 5801 5799 5796 5795 5793 5791 5789 5787 5786 5787 5786 5785 5782 5781 5780 5779 5780 5777 5778 5777 5774 5773 5772 5771 5771 5772 5772 5768 5765 5762 5764 5766 5770 5768 5766 5766 5765 5763 5761 5757 5754 5752
5802 5800 5799 5796 5795 5792 5791 5790 5787 5785 5784 5784 5782 5781 5780 5779 5777 5776 5776 5776 5774 5775 5773 5771 5770 5769 5768 5770 5771 5766 5761 5758 5761 5765 5764 5764 5763 5762 5762 5761 5757 5754 5751
5803 5802 5799 5796 5794 5791 5790 5788 5785 5782 5780 5779 5780 5780 5778 5777 5776 5775 5774 5773 5773 5774 5770 5771 5771 5769 5766 5766 5768 5767 5766 5764 5758 5756 5760 5762 5761 5759 5759 5758 5757 5754 5750
5804 5802 5798 5794 5792 5790 5788 5786 5783 5782 5780 5780 5779 5777 5776 5775 5774 5773 5772 5771 5769 5770 5768 5767 5766 5766 5766 5765 5765 5764 5762 5761 5761 5755 5752 5754 5757 5758 5757 5755 5753 5752 5749
5804 5801 5797 5792 5788 5787 5785 5784 5781 5778 5776 5775 5773 5773 5773 5773 5773 5772 5770 5768 5767 5767 5765 5764 5764 5763 5762 5761 5761 5762 5760 5759 5757 5756 5752 5750 5750 5752 5753 5752 5751 5749 5747